Location: Zihuatanejo
(17.6330°N, 101.5500°W)
Time: 18:15:32
(UTC-06:00)

Daily predictions for brighter satellites

Satellite Brightness Start Highest point End
(mag) Time Altitude Azimuth Time Altitude Azimuth Time Altitude Azimuth
Cosmos 1992 Rocket 4.1 19:02:26 10° NNW 19:07:41 88° E 19:12:55 10° SSE
Skynet4D Del rocket 3.6 19:07:08 10° WSW 19:12:38 81° NNW 19:17:59 10° ENE
Meteor 1-11 Rocket 3.9 19:08:58 10° S 19:14:30 55° E 19:20:10 10° NNE
Cosmos 2360 Rocket 3.7 19:12:31 10° NNE 19:15:49 16° ENE 19:19:07 10° ESE
Cosmos 1980 Rocket 3.8 19:11:16 10° NW 19:16:33 41° WSW 19:21:50 10° S
Cosmos 1602 3.6 19:14:29 10° S 19:18:18 70° E 19:22:08 10° N
Cosmos 1140 Rocket 3.8 19:14:43 10° SSW 19:19:48 71° WNW 19:24:55 10° N
Resurs 01 Rocket 3.3 19:19:00 10° ESE 19:21:06 13° ENE 19:23:11 10° NE
Cosmos 1300 Rocket 3.5 19:17:08 10° S 19:21:28 71° E 19:25:52 10° N
DNEPR-1 R/B 4.3 19:18:03 10° N 19:21:51 31° ENE 19:25:58 10° SE
ATLAS CENTAUR R/B 2.9 19:15:19 10° SSW 19:26:18 79° ESE 19:30:05 10° NE
Cosmos 1461 3.6 19:22:50 10° N 19:26:32 32° ENE 19:30:21 10° SE
Cosmos 614 Rocket 4.0 19:22:25 10° SSW 19:27:32 82° WNW 19:32:37 10° NNE
Nadezhda 1 Rocket 4.4 19:23:48 10° N 19:29:48 68° W 19:35:50 10° S
ALOS 3.2 19:26:00 10° SE 19:29:50 26° ENE 19:33:41 10° NNE
Centaur AC-119 2.2 19:29:09 10° WNW 19:31:30 80° SSW 19:38:01 10° ESE
FREGAT/IRIS 3.1 19:28:57 10° SSE 19:31:50 38° ENE 19:34:43 10° N
ASTRO E2 3.6 19:29:21 10° NW 19:33:03 34° NNE 19:35:40 17° E
Fermi 4.1 19:32:35 10° SW 19:36:32 51° SSE 19:39:15 19° E
CENTAUR R/B 3.9 19:33:57 10° NW 19:42:01 57° WSW 19:50:05 10° S
Cosmos 1340 2.5 19:44:06 10° N 19:47:52 69° E 19:51:37 10° SSE
HJ-1C 3.8 19:46:57 10° SSE 19:50:08 40° ENE 19:53:18 10° N
Cosmos 2181 Rocket 4.0 19:43:55 10° N 19:50:11 67° E 19:56:31 10° SSE
OTV 4 2.6 19:48:32 10° W 19:50:53 21° NNW 19:52:48 13° NNE
Cosmos 2074 Rocket 4.0 19:44:59 10° S 19:51:07 63° E 19:57:17 10° NNE
SL-16 R/B 2.6 19:47:06 10° NNW 19:52:42 65° WSW 19:58:18 10° S
SJ-6B 2.8 19:49:08 10° SSE 19:53:13 87° ENE 19:57:14 10° N
Meteosat 1 Rocket2 4.4 19:50:53 10° W 19:54:00 28° SSW 19:57:24 10° SSE
Cosmos 2184 Rocket 4.0 19:47:53 10° S 19:54:08 64° E 20:00:22 10° NNE
FengYun 1-2 T 4.3 19:50:07 10° SSE 19:55:23 51° ENE 20:00:40 10° N
Okean 1 Rocket 3.9 19:52:01 10° SSW 19:56:23 53° W 20:00:46 10° N
Helios 1B rocket 2.5 19:56:49 10° NNE 20:00:52 55° E 20:04:54 10° S
Meteor 1-5 Rocket 4.2 19:55:44 10° S 20:01:40 77° E 20:07:38 10° N
FENGYUN 3A 3.6 19:57:06 10° SSE 20:02:25 64° ENE 20:07:45 10° N
CZ-3C R/B 0.5 19:57:35 10° W 20:03:12 60° NNW 20:03:43 47° NE
Hubble Space Telescope 2.1 20:01:29 10° W 20:05:11 32° NNW 20:06:46 24° NNE
H-II Stage 2 1.1 20:02:27 10° WSW 20:06:10 58° NNW 20:06:20 56° N
Cosmos 2322 Rocket 3.5 20:03:46 10° NW 20:08:59 41° WSW 20:14:14 10° S
Intercosmos 24 3.9 20:06:03 10° S 20:09:37 78° W 20:14:01 10° N
Cosmos 2082 4.2 20:05:28 10° S 20:10:40 37° ESE 20:11:08 36° E
Meteor 1-19 Rocket 4.4 20:12:05 10° N 20:17:48 78° W 20:23:36 10° S
GOES 2 Rocket 2.9 20:14:33 10° WNW 20:19:24 85° SSW 20:20:05 63° ESE
H-2A R/B 4.4 20:21:38 22° N 20:21:38 22° N 20:23:05 10° N
GPS 2-15 Rocket1 3.9 20:16:14 10° SW 20:20:30 34° SSE 20:20:44 34° SSE
Cosmos 1238 Rocket 4.3 20:20:16 10° NNW 20:22:55 28° W 20:25:48 10° SSW
Cosmos 2154 Rocket 4.0 20:16:57 10° SSE 20:23:07 55° E 20:29:17 10° NNE
Atlas Centaur 2 2.4 20:16:59 10° WSW 20:24:28 76° SSE 20:26:14 50° E
OAO 3 Rocket 3.8 20:19:56 10° WSW 20:24:43 49° NNW 20:26:02 39° NNE
Cosmos 2322 3.5 20:19:55 10° NNW 20:25:36 72° ENE 20:28:23 31° SSE
Cosmos 1544 Rocket 4.5 20:22:12 10° S 20:24:45 34° SSE 20:24:45 34° SSE
Meteor 2-13 Rocket 4.3 20:22:20 10° S 20:28:22 86° E 20:34:26 10° N
SL-19 R/B 4.2 20:26:36 10° SSE 20:32:09 85° WSW 20:37:54 10° NNW
Cosmos 2297 Rocket 2.6 20:29:15 10° S 20:33:28 45° SSE 20:33:28 45° SSE
Delta 202 4.3 20:25:53 10° WSW 20:35:17 71° S 20:36:55 54° ESE
Okean 1-7 Rocket 3.9 20:31:07 10° NNW 20:35:34 66° W 20:39:58 10° S
GPS 2-18 Rocket1 4.2 20:32:39 10° WNW 20:35:32 40° NW 20:35:32 40° NW
GPS 2-14 Rocket1 3.7 20:36:38 10° WSW 20:39:29 45° WSW 20:39:29 45° WSW
COSMOS 2428 4.2 20:35:39 10° N 20:37:45 22° N 20:37:45 22° N
Meteor 1-23 Rocket 4.2 20:35:42 10° N 20:41:28 85° W 20:47:10 10° S
Meteor 2-4 Rocket 4.0 20:38:08 10° NNW 20:43:29 61° W 20:48:43 10° S
Cosmos 2227 Rocket 2.5 20:49:02 10° SSW 20:54:36 64° WNW 20:55:24 57° NNW
Resurs 01 Rocket 3.4 20:53:22 10° SSW 20:57:13 30° W 21:01:05 10° NW
SEDSat Delta rocket 3.9 20:51:25 10° WSW 20:57:37 74° WNW 20:57:37 74° WNW
Cosmos 2360 Rocket 3.3 20:54:30 10° NW 20:59:47 41° WSW 21:04:22 13° S
Centaur D-1A AC-35 4.4 21:28:46 10° WNW 21:33:52 32° W 21:33:52 32° W
ATLAS 2A CENTAUR R/B 4.0 21:42:00 10° WNW 22:26:06 - ESE 21:44:17 37° WNW
